Location: Bremen
(53.0793°N, 8.8017°E)
Time: 18:12:39
(UTC+02:00)

Explorer 7 - All Passes

Search period start: 13 April 2024 00:00
Search period end: 23 April 2024 00:00
Orbit: 469 x 629 km, 50.3° (Epoch: 12 April)

Date Brightness Start Highest point End Pass type
(mag) Time Alt. Az. Time Alt. Az. Time Alt. Az.
13 Apr - 14:30:07 10° S 14:32:49 15° SE 14:35:29 10° ESE daylight
13 Apr - 16:07:35 10° SW 16:11:53 40° SSE 16:16:05 10° E daylight
13 Apr - 17:46:57 10° WSW 17:51:27 61° S 17:55:46 10° E daylight
13 Apr - 19:26:47 10° W 19:31:01 44° SSW 19:35:04 10° SE daylight
13 Apr - 21:07:17 10° W 21:10:05 17° SW 21:12:48 10° S visible
14 Apr - 14:23:29 10° S 14:26:42 19° SE 14:29:54 10° E daylight
14 Apr - 16:01:30 10° SW 16:05:53 45° SSE 16:10:11 10° E daylight
14 Apr - 17:41:00 10° W 17:45:30 62° S 17:49:49 10° ESE daylight
14 Apr - 19:20:51 10° W 19:25:01 39° SSW 19:28:59 10° SE daylight
14 Apr - 21:01:46 10° WSW 21:03:59 14° SW 21:06:08 10° S visible
15 Apr - 14:17:01 10° SSW 14:20:37 23° SE 14:24:10 10° E daylight
15 Apr - 15:55:26 10° WSW 15:59:54 50° SSE 16:04:14 10° E daylight
15 Apr - 17:35:02 10° W 17:39:32 60° S 17:43:50 10° ESE daylight
15 Apr - 19:14:57 10° W 19:19:00 34° SSW 19:22:51 10° SE daylight
15 Apr - 20:56:39 10° WSW 20:57:49 11° SW 20:58:58 10° SSW visible
16 Apr - 14:10:39 10° SSW 14:14:32 27° SSE 14:18:21 10° E daylight
16 Apr - 15:49:24 10° WSW 15:53:54 55° SSE 15:58:17 10° E daylight
16 Apr - 17:29:03 10° W 17:33:32 58° S 17:37:51 10° ESE daylight
16 Apr - 19:09:02 10° W 19:12:56 30° SSW 19:16:39 10° SSE daylight
17 Apr - 14:04:22 10° SW 14:08:27 31° SSE 14:12:29 10° E daylight
17 Apr - 15:43:21 10° WSW 15:47:54 58° S 15:52:19 10° E daylight
17 Apr - 17:23:04 10° W 17:27:32 54° SSW 17:31:49 10° ESE daylight
17 Apr - 19:03:09 10° W 19:06:50 25° SSW 19:10:23 10° SSE daylight
18 Apr - 12:21:25 10° SSE 12:23:25 13° SE 12:25:24 10° ESE daylight
18 Apr - 13:58:08 10° SW 14:02:22 36° SSE 14:06:34 10° E daylight
18 Apr - 15:37:19 10° WSW 15:41:53 61° S 15:46:20 10° E daylight
18 Apr - 17:17:05 10° W 17:21:30 50° SSW 17:25:45 10° ESE daylight
18 Apr - 18:57:18 10° W 19:00:43 21° SW 19:04:00 10° SSE daylight
19 Apr - 12:14:29 10° S 12:17:14 16° SE 12:19:59 10° ESE daylight
19 Apr - 13:51:57 10° SW 13:56:18 41° SSE 14:00:36 10° E daylight
19 Apr - 15:31:18 10° WSW 15:35:52 62° S 15:40:19 10° E daylight
19 Apr - 17:11:05 10° W 17:15:27 45° SSW 17:19:40 10° SE daylight
19 Apr - 18:51:32 10° W 18:54:34 18° SW 18:57:29 10° S daylight
20 Apr - 12:07:48 10° S 12:11:03 19° SE 12:14:19 10° E daylight
20 Apr - 13:45:48 10° SW 13:50:14 46° SSE 13:54:37 10° E daylight
20 Apr - 15:25:16 10° W 15:29:50 62° S 15:34:18 10° ESE daylight
20 Apr - 17:05:06 10° W 17:09:23 40° SSW 17:13:31 10° SE daylight
20 Apr - 18:45:54 10° WSW 18:48:22 15° SW 18:50:46 10° S daylight
21 Apr - 12:01:17 10° SSW 12:04:53 23° SE 12:08:30 10° E daylight
21 Apr - 13:39:40 10° WSW 13:44:09 51° SSE 13:48:36 10° E daylight
21 Apr - 15:19:14 10° W 15:23:48 61° S 15:28:15 10° ESE daylight
21 Apr - 16:59:06 10° W 17:03:17 35° SSW 17:07:19 10° SE daylight
21 Apr - 18:40:34 10° WSW 18:42:09 12° SW 18:43:42 10° SSW daylight
22 Apr - 11:54:51 10° SSW 11:58:43 27° SSE 12:02:37 10° E daylight
22 Apr - 13:33:33 10° WSW 13:38:05 55° SSE 13:42:35 10° E daylight
22 Apr - 15:13:11 10° W 15:17:44 58° S 15:22:11 10° ESE daylight
22 Apr - 16:53:07 10° W 16:57:09 31° SSW 17:01:04 10° SSE daylight
